Location: Payette
(44.0782°N, 116.9338°W)
Time: 12:52:20
(UTC-06:00)

N. Korean satellite - Pass Details

Date: 21 March 2019
Orbit: 457 x 508 km, 97.2° (Epoch: 23 April)

Event Time Altitude Azimuth Distance (km) Brightness Sun altitude
Rises 06:56:27 0° 32° (NNE) 2,520 10.9 -10.3°
Reaches altitude 10° 06:59:23 10° 60° (ENE) 1,647 10.6 -9.8°
Maximum altitude 07:01:13 14° 92° (E) 1,444 10.4 -9.4°
Drops below altitude 10° 07:03:03 10° 123° (ESE) 1,654 10.0 -9.1°
Sets 07:06:00 0° 150° (SSE) 2,540 10.5 -8.6°
